Lapse_Rate
4.4 4.7 5.0 5.6 5.8 5.8 6.0 6.2 6.4 6.8 6.9 6.6 7.3 7.1 7.4 7.7 7.8 8.1 7.2 7.2 7.3 7.0 7.0 6.8 6.4 6.6 5.9 5.4 5.2 4.6 4.1 5.0 4.8 5.3 5.3 5.3 6.0 6.1 6.4 6.2 6.2 5.8 5.8 5.7
5.6 5.7 6.0 5.9 6.1 6.3 6.3 6.3 6.7 6.9 7.0 7.0 6.9 6.9 7.1 7.4 7.6 7.9 7.5 7.0 7.1 7.5 7.3 6.8 6.6 6.5 6.3 5.9 5.6 4.4 4.6 5.0 5.0 5.3 5.4 5.6 6.1 6.3 6.5 6.3 6.1 5.9 5.9 5.8
5.7 6.2 6.0 5.9 6.0 5.9 6.0 5.5 6.0 6.1 7.0 6.9 7.0 7.0 7.7 8.0 7.1 7.2 7.1 7.2 7.2 7.3 7.1 6.8 7.0 6.8 7.1 6.5 6.0 4.8 5.3 5.3 5.1 4.9 5.1 5.5 5.7 6.0 6.1 6.0 5.9 5.9 5.9 5.8
5.9 6.2 6.0 5.9 5.8 5.4 5.6 6.1 5.7 6.0 6.2 6.7 7.0 6.9 7.8 7.8 7.1 6.8 7.0 6.9 7.2 7.0 6.7 6.9 6.4 6.7 7.5 7.1 6.4 5.8 4.8 4.7 5.3 4.9 5.1 5.4 5.9 5.8 5.9 6.1 6.0 5.9 6.1 5.8
6.6 6.4 5.7 5.6 6.2 5.7 6.3 5.8 6.0 6.2 6.1 6.4 6.8 6.8 7.1 7.2 7.0 7.0 7.0 7.1 7.1 7.5 7.1 6.9 6.2 6.4 7.2 6.6 5.9 5.9 5.4 5.3 5.2 5.0 4.7 4.9 5.6 5.8 6.0 6.0 5.9 6.1 6.1 6.1
7.0 6.6 5.6 6.1 6.0 6.0 6.0 5.9 6.1 6.1 5.9 6.1 6.8 6.4 6.6 6.6 6.8 6.6 6.8 6.9 7.1 6.9 7.0 6.6 6.1 5.8 6.7 6.6 6.6 6.1 6.2 4.6 4.6 5.4 4.8 5.2 5.3 5.3 5.4 5.4 5.8 6.1 6.3 6.2
6.6 6.4 5.9 5.7 5.8 6.5 6.0 5.9 6.3 6.1 5.8 6.0 6.3 6.2 6.3 6.2 6.7 6.8 6.5 6.6 6.7 6.6 7.1 6.9 6.5 6.5 6.6 6.8 6.8 5.8 5.4 5.5 5.2 4.8 5.2 4.8 4.8 5.2 5.6 5.6 5.7 6.0 6.1 6.2
6.2 6.4 6.2 5.9 5.6 6.0 6.4 6.0 6.4 6.4 6.7 6.8 6.4 6.3 6.0 6.0 6.1 6.4 6.4 6.4 6.2 6.5 7.1 6.8 6.8 6.7 6.7 6.4 6.5 6.0 5.6 5.5 5.6 4.8 5.1 4.8 5.1 5.4 5.3 5.4 6.1 6.1 6.3 6.6
6.1 6.3 6.3 6.1 5.8 6.1 6.2 6.1 6.2 6.0 6.7 7.0 5.9 5.8 5.9 5.9 5.9 6.2 6.2 6.0 6.1 5.6 6.8 6.8 7.1 6.7 6.8 6.5 6.6 6.3 6.1 5.5 5.0 4.8 4.7 4.9 5.3 5.1 5.0 5.4 5.8 6.2 6.1 6.4
6.0 5.9 6.3 6.3 6.0 6.1 6.1 6.0 6.0 6.1 6.4 6.5 6.2 5.7 5.8 5.7 5.7 5.8 5.6 5.5 5.6 5.9 6.4 7.0 6.8 6.8 6.6 6.7 6.8 6.3 5.6 5.0 4.6 4.7 4.7 4.9 5.1 5.2 5.0 5.4 5.4 5.8 6.1 6.0
5.9 5.9 6.5 6.4 6.1 5.8 5.7 6.0 5.9 5.9 6.2 6.5 6.0 6.0 5.8 5.5 5.7 5.4 5.2 5.0 5.4 5.5 5.7 5.5 6.3 6.4 6.6 6.4 6.3 5.8 6.0 5.8 5.3 5.0 4.9 4.8 4.4 4.7 4.6 4.8 5.2 5.3 5.4 5.4
6.0 6.1 6.3 6.6 6.3 6.2 6.2 6.0 6.2 6.2 6.2 6.1 5.8 5.6 5.5 5.5 5.5 5.5 5.5 5.3 5.5 5.6 5.8 6.1 6.2 6.5 6.4 6.5 6.4 6.7 6.3 6.3 5.7 5.1 5.0 4.8 4.9 4.6 4.9 5.1 4.9 5.0 5.1 5.2
6.1 6.1 6.4 7.0 7.0 6.6 6.4 6.8 6.8 6.7 6.5 5.9 5.9 5.8 5.5 5.1 5.2 5.2 5.3 5.0 4.8 5.4 6.0 6.2 6.5 6.5 6.4 6.2 6.3 6.2 6.5 5.8 5.1 5.3 5.0 5.2 5.2 5.7 5.4 5.4 5.7 5.4 4.9 4.9
6.2 6.3 6.4 6.4 6.5 6.5 6.5 6.8 7.0 6.7 6.2 5.9 5.8 5.8 5.5 5.3 5.0 4.9 5.1 5.1 4.8 4.5 5.4 6.3 6.7 6.3 6.5 6.4 6.2 6.0 5.8 5.7 5.6 5.8 5.4 5.4 5.7 5.6 5.8 5.8 5.9 5.8 5.3 5.4
6.4 6.4 6.7 6.5 6.4 6.8 6.5 6.4 6.6 6.6 6.4 5.8 5.8 5.6 5.3 5.7 5.6 5.0 5.1 4.9 4.8 4.9 5.3 5.4 5.8 5.8 6.0 6.0 5.8 5.7 5.7 5.6 5.7 5.6 5.8 5.7 5.9 5.9 5.8 6.0 6.1 6.1 5.7 5.5
6.3 6.2 6.6 6.6 6.6 6.6 6.6 6.5 6.4 6.2 6.0 5.9 5.8 5.4 5.6 5.5 5.6 5.9 5.4 5.5 5.7 4.5 5.1 4.8 5.2 5.4 5.5 5.3 5.6 5.4 5.5 5.6 5.7 5.7 5.6 5.5 5.7 5.8 5.6 5.7 6.1 6.0 5.9 5.6
6.5 6.5 6.7 6.8 7.1 7.1 6.8 6.4 6.0 5.8 5.8 5.7 5.5 5.3 5.7 6.0 6.0 5.8 5.6 5.7 5.8 5.8 5.7 5.0 5.1 5.2 5.2 5.1 5.2 5.1 5.5 5.4 5.5 5.6 5.5 5.8 5.8 5.6 5.7 6.0 5.8 5.9 5.7 5.7
6.6 6.6 6.8 7.0 7.3 6.6 6.2 6.2 6.2 5.8 5.4 5.5 5.5 5.8 6.0 5.8 5.7 5.8 5.7 5.6 5.4 5.3 5.7 5.9 6.0 5.8 5.9 5.7 5.7 5.7 5.9 5.9 5.8 5.6 5.4 5.5 5.6 5.8 5.7 5.9 6.1 6.0 6.0 5.9
6.8 6.7 6.6 6.9 6.7 6.5 6.3 6.3 6.2 5.9 5.9 5.8 5.8 5.6 5.6 5.8 5.9 6.4 6.2 6.2 6.2 5.9 5.6 5.4 5.5 5.7 5.6 5.5 5.7 5.9 5.7 5.8 5.8 5.9 5.8 5.7 5.8 5.7 5.7 5.6 5.6 5.9 6.0 5.9
6.5 6.5 6.6 7.0 6.9 6.5 6.1 6.2 6.2 6.1 5.8 6.0 6.0 5.9 5.9 5.8 6.1 6.0 6.2 6.2 6.2 6.4 6.4 6.4 6.4 6.2 6.2 6.3 6.3 6.1 6.3 6.3 6.0 5.6 5.3 5.4 5.3 5.8 5.8 5.9 6.2 6.1 5.9 5.9
5.1 5.6 6.0 6.2 6.2 6.1 6.4 6.5 6.4 6.3 5.5 5.6 5.8 6.0 6.2 6.2 6.0 5.9 6.0 6.2 6.5 6.5 6.7 6.7 6.6 6.6 6.5 6.5 6.5 6.3 6.4 6.4 6.5 6.4 6.3 6.1 6.1 6.0 5.8 5.6 5.6 5.9 5.9 5.8
4.5 4.7 5.0 5.1 5.4 5.1 5.6 5.4 5.3 5.0 5.3 5.4 5.2 5.2 5.4 5.7 5.7 5.5 5.3 5.5 5.7 6.0 6.2 6.5 6.7 6.9 6.9 6.8 6.7 6.8 6.8 6.8 6.7 6.5 6.5 6.5 6.5 6.6 6.5 6.3 6.2 5.9 6.0 6.2
4.6 4.8 4.7 4.5 4.8 4.7 4.8 4.6 4.5 4.5 4.3 4.2 4.2 4.2 4.3 4.4 4.3 4.4 4.5 4.6 4.6 4.8 5.1 5.5 5.8 6.2 6.4 6.7 6.7 6.8 6.8 6.8 6.8 6.7 6.6 6.4 6.3 6.4 6.4 6.4 6.5 6.5 6.4 6.3
4.7 4.7 4.6 4.6 4.9 4.7 4.6 4.6 4.6 4.6 4.5 4.4 4.4 4.4 4.4 4.4 4.4 4.3 4.2 4.3 4.4 4.4 4.3 4.3 4.4 4.6 4.9 5.4 5.9 6.3 6.7 6.8 6.7 6.9 6.6 6.4 6.5 6.5 6.5 6.4 6.5 6.6 6.6 6.6
4.5 4.6 4.6 4.7 4.7 4.7 4.7 4.7 4.7 4.7 4.7 4.6 4.5 4.5 4.6 4.6 4.6 4.6 4.5 4.5 4.5 4.5 4.6 4.6 4.6 4.6 4.6 4.6 4.9 5.4 5.7 6.0 6.2 6.4 6.5 6.6 6.7 6.6 6.7 6.7 6.6 6.7 6.7 6.6
5.3 5.2 5.2 5.4 4.7 4.7 4.8 4.7 4.7 4.6 4.5 4.6 4.5 4.5 4.5 4.6 4.7 4.8 4.8 4.9 4.9 4.9 4.8 4.8 4.8 4.9 4.9 4.9 5.0 5.1 5.2 5.6 6.0 6.3 6.4 6.5 6.7 6.9 6.9 6.6 6.4 6.4 6.4 6.5
Wind_Speed
7 4 7 11 14 15 13 16 20 20 17 19 20 23 20 19 14 18 21 23 17 18 19 9 7 7 8 8 11 11 7 11 13 13 9 8 8 8 7 5 19 18 17 16
4 10 14 13 14 12 13 15 22 22 17 15 15 22 22 19 20 16 17 9 13 16 15 8 10 8 9 10 10 13 4 18 15 12 11 11 10 8 8 7 11 12 16 16
10 9 14 12 12 12 15 16 20 20 22 19 19 24 24 23 22 14 12 9 8 8 8 8 10 9 8 10 12 11 14 15 17 17 11 11 9 8 7 7 9 7 16 16
6 7 9 9 12 11 17 14 18 19 13 9 2 10 7 9 13 11 12 14 9 9 13 12 10 9 12 11 12 9 14 7 15 20 16 16 12 13 10 10 9 8 16 15
6 8 6 11 11 2 12 11 12 14 11 8 13 6 5 4 10 12 6 8 6 10 11 9 7 7 12 11 11 10 9 6 3 14 17 12 13 12 11 9 12 11 10 15
16 15 12 10 12 11 14 15 15 10 5 5 15 7 1 3 4 11 8 6 2 3 7 7 5 6 10 10 7 6 6 10 11 13 18 18 15 12 11 10 9 8 7 7
7 7 3 3 7 8 5 7 3 2 3 4 5 5 1 10 8 11 4 3 3 4 2 5 7 7 11 13 10 9 12 8 12 14 11 18 15 14 17 14 10 10 8 6
3 3 3 4 3 4 8 4 3 4 1 2 7 3 4 14 7 2 3 4 6 5 2 4 8 9 13 15 10 11 10 8 6 4 4 7 7 5 8 11 10 9 8 8
4 3 2 7 3 2 5 3 6 4 4 2 2 5 4 11 10 11 8 11 9 7 5 4 6 9 16 15 14 13 13 10 5 8 10 8 8 11 8 7 10 9 9 9
1 5 5 4 2 10 6 6 2 1 4 3 2 2 6 9 8 9 10 11 11 9 8 7 2 12 14 13 13 11 12 13 10 8 4 7 6 8 9 8 9 9 9 10
3 3 3 2 2 3 4 5 2 3 1 3 3 4 10 9 11 13 13 14 11 11 11 10 3 13 13 10 10 8 12 14 13 12 10 9 7 6 5 6 8 6 6 6
3 2 4 2 1 7 5 5 4 3 6 1 2 4 10 11 13 16 15 14 14 17 13 10 15 13 13 11 9 8 8 8 13 13 11 10 9 9 7 7 8 10 9 7
5 3 5 2 2 3 5 6 4 3 3 12 3 4 10 11 15 14 14 15 16 14 17 22 18 15 14 14 13 9 8 8 10 10 10 9 8 9 7 5 6 8 8 9
3 4 4 4 3 3 8 16 13 5 6 4 8 11 14 15 17 16 15 15 16 12 16 19 19 18 15 12 11 10 10 9 8 8 8 8 7 7 7 6 7 8 7 6
0 3 3 6 8 12 16 16 16 14 9 7 9 14 13 13 14 13 15 15 17 20 21 18 15 14 13 13 11 11 10 9 9 7 8 7 8 7 7 7 6 7 7 6
2 2 3 5 6 14 11 17 14 10 8 10 11 12 10 11 13 17 16 16 19 18 19 19 17 16 14 12 11 9 9 9 10 10 9 8 8 8 7 6 7 8 8 7
4 3 2 0 3 4 7 9 9 10 13 11 9 9 10 13 15 16 15 16 16 16 17 16 14 12 12 11 8 9 8 9 9 9 7 8 8 7 7 7 7 7 6 6
5 4 1 2 2 3 3 3 4 12 10 8 7 7 9 10 11 13 13 13 14 13 13 12 9 12 12 9 8 7 7 8 9 8 7 6 7 7 6 7 7 5 4 6
3 3 2 2 3 4 3 2 2 4 8 7 7 6 7 9 11 12 11 11 10 9 9 8 9 9 8 7 7 7 8 8 8 7 7 5 5 6 6 6 6 4 4 4
5 3 0 2 2 3 3 2 3 5 4 6 7 7 7 5 5 3 8 8 10 10 8 10 10 9 10 9 9 12 10 9 8 6 5 5 5 5 5 5 4 3 3 3
1 3 1 3 3 3 3 2 3 2 3 5 7 7 8 5 5 4 6 7 8 7 8 8 10 9 10 8 9 9 7 8 6 5 6 5 5 5 5 5 3 4 4 4
1 1 2 1 1 3 2 0 3 4 5 7 6 6 7 6 6 7 8 6 6 6 7 8 8 9 9 10 8 8 9 6 5 5 5 6 6 4 4 5 3 4 4 3
0 1 1 2 2 2 3 5 4 2 6 4 6 5 5 6 5 6 5 6 7 7 5 5 6 7 7 9 9 9 8 9 6 7 6 5 5 4 4 3 2 1 3 3
3 2 1 3 4 6 5 3 3 5 6 5 5 5 4 6 6 5 5 5 5 5 5 6 7 6 7 7 7 5 6 7 7 7 7 6 5 5 4 3 1 1 2 2
1 6 4 2 4 5 5 7 6 6 6 6 5 5 5 5 6 6 5 5 5 5 5 5 6 6 6 6 6 6 7 6 5 5 5 5 4 5 4 3 1 2 1 2
5 6 4 4 10 6 8 8 8 6 5 4 5 4 5 5 5 6 6 4 4 5 3 6 6 6 5 6 6 6 6 6 5 5 5 4 4 3 3 3 4 4 7 8
Wind_Direction
256 228 229 239 242 247 257 260 271 280 292 287 279 281 276 262 249 262 245 240 220 232 232 205 223 180 189 184 171 165 263 201 173 151 153 147 147 146 152 154 162 175 151 149
263 240 244 261 278 286 281 283 275 284 283 289 296 289 287 276 273 242 252 250 224 221 211 175 200 181 201 194 179 174 203 194 183 159 151 151 153 154 156 155 167 152 151 156
233 261 309 262 272 276 269 261 272 271 293 285 281 280 266 256 256 221 229 239 254 217 224 203 200 178 207 189 179 167 182 211 175 161 157 152 153 153 153 158 164 167 155 158
281 293 280 287 280 272 274 260 269 277 276 272 68 293 312 244 230 220 210 218 227 242 225 204 210 173 204 192 168 167 160 238 169 167 163 167 163 162 164 165 162 170 155 160
256 297 292 286 276 267 258 304 267 278 267 290 267 263 294 274 226 220 207 239 253 222 222 212 191 190 208 181 147 170 155 192 355 183 169 169 166 163 161 160 156 165 158 165
263 265 282 262 287 286 280 277 267 248 246 242 254 199 219 308 326 308 221 228 240 310 209 201 162 213 189 160 146 148 170 202 189 241 170 164 167 156 146 148 149 153 147 141
280 268 225 25 294 282 220 298 269 141 202 253 108 110 279 313 305 293 208 84 48 30 317 241 203 208 170 136 157 104 89 159 195 239 213 163 165 159 157 159 158 152 147 144
312 314 223 176 234 288 288 226 331 295 272 66 184 359 318 349 33 113 31 61 63 21 345 278 208 189 166 153 130 124 109 113 344 216 171 111 96 154 155 158 154 157 156 147
318 287 248 212 211 245 331 324 303 271 236 78 21 341 263 9 8 339 83 60 43 21 2 311 217 173 156 152 151 139 135 99 19 139 118 103 115 110 109 112 149 151 152 151
304 291 318 6 241 223 237 300 290 326 346 75 336 337 354 350 351 357 49 43 35 8 5 358 117 160 146 156 147 152 136 130 146 133 136 130 127 120 132 134 132 134 136 151
239 259 283 253 328 298 326 314 327 244 168 12 353 23 9 18 351 28 37 35 26 22 22 5 176 134 133 113 114 156 134 150 162 156 142 140 133 123 120 160 152 142 150 160
240 287 290 251 29 233 223 254 343 4 10 347 85 51 8 38 31 28 28 27 24 30 27 14 98 98 106 105 115 102 115 147 161 154 150 149 150 151 159 165 159 154 170 178
334 336 312 51 201 23 338 20 6 353 25 22 9 41 29 24 45 46 26 22 35 11 30 47 54 63 69 65 60 57 82 84 99 129 131 135 139 133 159 168 156 159 168 180
297 333 20 16 19 296 17 40 36 58 66 72 49 53 31 23 32 30 40 31 26 37 48 52 46 47 49 58 59 54 55 68 68 89 103 106 104 117 124 128 138 130 140 144
9 8 31 67 74 55 37 36 40 58 50 57 57 50 35 26 31 37 36 34 34 28 39 46 52 52 50 48 51 55 51 62 72 70 93 96 100 103 107 107 95 103 110 118
240 97 26 8 20 69 42 22 41 38 359 62 57 65 47 34 28 33 35 31 31 32 31 34 44 48 46 43 42 48 47 50 70 75 62 68 88 92 92 97 104 101 88 80
12 348 15 340 254 312 34 12 34 50 48 45 42 57 53 40 35 26 27 32 36 29 30 32 32 47 62 59 50 34 46 62 58 68 71 76 74 78 81 86 84 88 94 110
334 331 340 289 261 56 89 46 20 65 35 55 69 67 81 83 58 38 34 34 34 30 34 24 28 39 42 44 57 61 39 45 69 69 60 65 86 81 80 79 79 79 97 108
22 293 312 52 54 137 166 96 59 37 36 14 40 34 131 146 68 34 24 35 38 28 36 37 38 59 46 35 51 62 70 65 61 55 63 65 78 92 81 85 99 95 98 107
306 247 119 353 90 54 88 93 358 299 89 18 36 17 24 130 57 29 19 15 23 22 30 30 34 43 40 31 47 59 52 48 52 63 69 66 78 87 98 96 92 88 107 120
285 312 322 21 69 108 71 10 300 28 121 68 60 39 42 78 110 119 78 43 31 24 31 41 37 34 17 25 66 66 57 48 51 66 69 66 75 86 97 100 110 121 121 119
327 175 149 294 150 296 32 251 63 144 72 84 60 81 94 98 95 100 103 92 80 61 40 40 43 33 22 23 49 49 34 356 51 77 75 70 67 67 90 103 113 113 128 138
6 125 131 113 196 104 32 98 46 53 115 71 103 68 103 108 92 82 88 97 102 105 90 74 68 59 33 33 35 39 4 360 19 41 49 58 79 78 109 109 126 127 162 170
180 187 196 140 173 165 151 113 136 87 107 98 79 95 77 117 104 102 77 68 65 54 74 101 102 75 47 40 50 52 26 25 23 30 20 15 32 54 59 41 58 250 214 214
204 139 186 103 131 114 184 175 154 120 123 116 76 68 60 103 100 116 110 93 81 73 55 61 80 85 84 70 47 23 14 17 33 40 28 12 4 359 4 12 9 323 93 88
184 189 167 218 173 185 183 170 149 144 137 110 128 113 78 41 92 102 107 94 93 90 79 73 74 77 71 64 46 27 14 19 18 16 2 7 359 356 341 327 317 266 262 281